Location: Marcé
(47.5801°N, 0.3280°W)
Time: 22:00:27
(UTC+01:00)

Altair - Pass Details

Date: 12 December 2021
Orbit: 1501 x 1683 km, 47.2° (Epoch: 20 January)

Event Time Altitude Azimuth Distance (km) Brightness Sun altitude
Rises 12:56:23 0° 202° (SSW) 4,863 11.4 19.3°
Reaches altitude 10° 13:00:02 10° 192° (SSW) 3,855 11.6 19.3°
Maximum altitude 13:08:09 31° 136° (SE) 2,528 9.5 19.2°
Drops below altitude 10° 13:16:02 10° 79° (E) 3,746 9.4 19.2°
Sets 13:19:30 0° 69° (ENE) 4,708 9.8 19.1°
